Location: Alladorf
(49.9620°N, 11.3790°E)
Time: 20:17:27
(UTC+00:00)

Cosmos 2227 - Pass Details

Date: 29 November 2020
Orbit: 833 x 863 km, 71.0° (Epoch: 25 January)

Event Time Altitude Azimuth Distance (km) Brightness Sun altitude
Exits shadow 04:02:31 69° 317° (NW) 893 4.1 -25.9°
Drops below altitude 10° 04:07:56 10° 26° (NNE) 2,455 6.8 -25.0°
Sets 04:10:24 0° 29° (NNE) 3,394 7.7 -24.6°
